Lotnisko EPSD


Aktualna POGODA w okolicy (METAR i TAF z EPSC)

EPSC 180030Z 29011KT CAVOK 00/M02 Q1028


TAF EPSC 171730Z 1718/1818 30008KT CAVOK PROB40 TEMPO 1718/1719 32015G25KT BECMG 1800/1802 BKN005 PROB40 TEMPO 1801/1809 3000 -SN BR BKN003 PROB40 TEMPO 1809/1816 SCT005 BKN012

Wszystkie o pogodzie w Polsce znajdziesz oczywiście na AWIACJA IMGW

Przed przylotem na lotnisko w Szczecinie-Dąbiu (EPSD) konieczne jest wcześniejsze uzyskanie zgody na lądowanie (PPR)

Znak ICAO: EPSD

Współrzędne lotniska: N532332 E0143802

Współrzędne ATZ: N532228 E0144207

ATZ lotniska: okrąg o promieniu 10km

Granice pionowe ATZ: GND/5500 ft (1676 m) AMSL

Łączność radiowa: Szczecin Radio na częstotliwości 122.2 MHz
Pas trawiasty: RWY 09R – 27L (900m x 50m)

Elewacja: 3 ft (1 m)

Pliki do wglądu lub pobrania:

Plik Opis Wielkość pliku
pdf EPSD Szczecin Dąbie Dane opisowe
135 KB
pdf EPSD plan lotniska Drogi startowe w użyciu
198 KB
pdf EPSD krąd nadlotniskowy Zasady poruszania się po kręgu
100 KB
pdf Regulamin hangarowania Regulamin użytkowania hangaru Aeroklubu Szczecińskiego
108 KB